This demonstration page uses our WeatherBlox Daily Observations layout. Learn more.

Left ArrowRight Arrow

Hourly Observations for July 23, 2021

Temp ( °F °C ) Dew Point ( °F °C ) Humidity (%) Winds ( mph kmh ) Pressure ( in mb ) Visibility ( mi km ) Precip ( " mm )
12:53 am 00:53 Clear 59 15 33 0.6 38 38 Calm 29.91 1013 10 16 0.00 0.00
1:53 am 01:53 Clear 51 10.6 29 -1.7 43 43 W 8 13 29.93 1014 10 16 0.00 0.00
2:53 am 02:53 Clear 49 9.4 31 -0.6 50 50 SW 3 6 29.94 1014 10 16 0.00 0.00
3:53 am 03:53 Clear 49 9.4 31 -0.6 50 50 Calm 29.95 1014 10 16 0.00 0.00
4:53 am 04:53 Clear 46 7.8 34 1.1 63 63 SSW 5 7 29.96 1015 10 16 0.00 0.00
5:53 am 05:53 Sunny 44 6.7 32 0 63 63 W 8 13 30.00 1016 10 16 0.00 0.00
6:53 am 06:53 Sunny 49 9.4 34 1.1 56 56 SW 6 9 30.01 1016 10 16 0.00 0.00
7:53 am 07:53 Sunny 55 12.8 39 3.9 55 55 WSW 7 11 30.01 1016 10 16 0.00 0.00
8:53 am 08:53 Sunny 64 17.8 39 3.9 40 40 WSW 10 17 30.01 1016 10 16 0.00 0.00
9:53 am 09:53 Sunny 71 21.7 34 1.1 26 26 SW 12 19 30.01 1016 10 16 0.00 0.00
10:53 am 10:53 Sunny 78 25.6 31 -0.6 18 18 SW 8 13 29.99 1016 10 16 0.00 0.00
11:53 am 11:53 Sunny 83 28.3 23 -5 11 11 W 15 24 29.98 1015 10 16 0.00 0.00
12:53 pm 12:53 Sunny 84 28.9 23 -5 10 10 WSW 21 33 29.97 1015 9 14 0.00 0.00
1:53 pm 13:53 Sunny 86 30 22 -5.6 9 9 W 16 26 29.97 1015 8 13 0.00 0.00
2:53 pm 14:53 Sunny 89 31.7 16 -8.9 7 7 W 16 26 29.96 1015 10 16 0.00 0.00
3:53 pm 15:53 Sunny 89 31.7 18 -7.8 7 7 W 21 33 29.96 1015 10 16 0.00 0.00
4:53 pm 16:53 Hazy 88 31.1 16 -8.9 7 7 W 18 30 29.96 1015 5 8 0.00 0.00
5:53 pm 17:53 Sunny 88 31.1 17 -8.3 7 7 W 15 24 29.94 1014 8 13 0.00 0.00
6:53 pm 18:53 Sunny 87 30.6 15 -9.4 7 7 W 18 30 29.94 1014 10 16 0.00 0.00
7:53 pm 19:53 Sunny 84 28.9 19 -7.2 9 9 W 14 22 29.94 1014 10 16 0.00 0.00
8:53 pm 20:53 Sunny 75 23.9 23 -5 14 14 W 8 13 29.96 1015 8 13 0.00 0.00
9:53 pm 21:53 Clear 68 20 27 -2.8 21 21 W 6 9 29.98 1015 9 14 0.00 0.00
10:53 pm 22:53 Clear 68 20 31 -0.6 25 25 NNW 3 6 29.99 1016 9 14 0.00 0.00
11:53 pm 23:53 Clear 60 15.6 32 0 35 35 S 5 7 30.00 1016 8 13 0.00 0.00

Powered by AerisWeather